Regional Weather Roundup
Issued by NWS

Home | Current Version | Previous Version | Text Only | Print | Product List | Glossary On
Versions: 1 2 3 4 5 6 7 8 9 10 11 12 13 14 15 16 17 18 19 20 21 22 23 24 25 26 27 28 29 30 31 32 33 34 35 36 37 38 39 40 41 42 43 44 45 46 47 48 49 50
000
ASUS45 KBOU 051207
RWRCO

WEATHER ROUNDUP FOR COLORADO
NATIONAL WEATHER SERVICE DENVER/BOULDER CO
600 AM MDT SAT SEP 05 2015

NOTE: "FAIR" INDICATES FEW OR NO CLOUDS BELOW 12000 FEET WITH NO
SIGNIFICANT WEATHER AND/OR OBSTRUCTIONS TO VISIBILITY.

COZ001>005-013-030-031-051300-
...NORTHWEST COLORADO...

CITY           SKY/WX    TMP DP  RH WIND       PRES   REMARKS
CRAIG          CLOUDY    53  47  79 CALM      30.10R
HAYDEN         MOCLDY    54  43  66 E9        30.11F
MEEKER         MOCLDY    57  45  64 SW5       30.12S
MOUNT WERNER   NOT AVBL
STEAMBOAT SPGS CLOUDY    48  44  87 E3        30.15S
WALDEN         CLOUDY    46  41  81 E6        30.20R
$$

COZ006>008-011-051300-
...WEST CENTRAL VALLEYS...

CITY           SKY/WX    TMP DP  RH WIND       PRES   REMARKS
GRAND JUNCTION MOCLDY    57  53  86 SE16      30.06F
MONTROSE       MOCLDY    54  53  97 SW5       30.16F
EAGLE          CLOUDY    54  52  94 E5        30.20F
RIFLE          MOCLDY    56  53  90 CALM      30.13R
DELTA          RAIN      58  55  89 E9        30.12F
NUCLA          MOCLDY    54  52  94 CALM      30.18R
$$

COZ017>023-064>068-051300-
...SOUTHWEST COLORADO...

CITY           SKY/WX    TMP DP  RH WIND       PRES   REMARKS
DURANGO        CLOUDY    56  54  93 CALM      30.20S
CORTEZ         CLOUDY    56  54  93 CALM      30.14S
PAGOSA SPRINGS CLOUDY    53  53 100 CALM      30.27S FOG
TELLURIDE      MOCLDY    49  47  92 SE7       30.33F
WOLF CREEK PAS NOT AVBL
$$

COZ009-010-012-014-032>034-037-058>063-051300-
...CENTRAL COLORADO...

CITY           SKY/WX    TMP DP  RH WIND       PRES   REMARKS
ASPEN          MOCLDY    51  48  89 S3        30.24S
BUENA VISTA    MOCLDY    50  47  90 CALM      30.23F
COPPER MTN     DRIZZLE   43  37  81 W16G26    30.46R
BERTHOUD PASS  FAIR      36  27  69 W20G35    30.47R
COTTONWOOD PAS MOCLDY    52  37  58 W13G25    30.33S
GUNNISON       CLOUDY    52  48  87 CALM      30.28S
KREMMLING      MOCLDY    50  46  87 CALM      30.22R
LEADVILLE      CLOUDY    43  43 100 NE7       30.34R
MONARCH PASS   FOG       37  36  93 W25       30.54F VSB<1/4
SALIDA         CLOUDY    60  44  54 SW3       30.28F
SUNLIGHT       MOCLDY    43  43 100 CALM      30.40S FOG
WILKERSON PASS FOG       41  39  93 SW10      30.42R VSB 1/2
$$

COZ069>075-051300-
...SAN LUIS VALLEY/SANGRE DE CRISTO MOUNTAINS...

CITY           SKY/WX    TMP DP  RH WIND       PRES   REMARKS
ALAMOSA        CLOUDY    52  48  86 CALM      30.23S
LA VETA PASS   NOT AVBL
SAGUACHE       CLOUDY    52  50  93 N5        30.26S
$$

COZ035-036-038>040-051300-
...NORTHERN COLORADO FRONT RANGE...

CITY           SKY/WX    TMP DP  RH WIND       PRES   REMARKS
DENVER INTL AP MOCLDY    65  49  56 W6        29.97R
DMNS CITY PARK   N/A     66  49  54 SW2       29.98R
AURORA         MOCLDY    65  49  55 S8        29.99R
FRONT RANGE AP PTCLDY    61  46  59 SW5       29.99R
ERIE MUNI ARPT CLOUDY    61  50  68 CALM      29.96R
BOULDER MUN AP CLOUDY    64  48  55 CALM      29.97R
CENTENNIAL     CLOUDY    68  47  46 SW15      30.00R
BROOMFIELD     CLOUDY    66  43  42 NW6       29.99S
FORT COLLINS   MOCLDY    66  48  52 CALM      29.96R
LONGMONT       MOCLDY    62  53  71 W3        29.97R
$$

COZ041-046-047-076>085-087-088-051300-
...PIKES PEAK/PALMER DIVIDE AND SOUTHERN FOOTHILLS...

CITY           SKY/WX    TMP DP  RH WIND       PRES   REMARKS
COLO. SPRINGS  MOCLDY    60  46  59 N5        30.06R
A. F. ACADEMY  MOCLDY    61  46  57 VRB2      30.07R
ELLICOTT       MOCLDY   N/A N/A N/A SW8       30.04R
FALCON         MOCLDY    57  44  63 W9        30.10S
FORT CARSON    MOCLDY    60  50  69 NE5       30.02S
LIMON          PTCLDY    54  49  83 CALM      29.99S
MONUMENT HILL  MOCLDY    59  43  55 W8        30.10R
TRINIDAD       MOCLDY    64  49  57 VRB3      30.08R
$$

COZ042>045-048>051-090-091-051300-
...NORTHEAST COLORADO...

CITY           SKY/WX    TMP DP  RH WIND       PRES   REMARKS
GREELEY ARPT   MOCLDY    59  52  77 CALM      29.94R
AKRON          PTCLDY    65  49  56 SW13      29.91R
BURLINGTON     PTCLDY    66  49  54 S10       29.94S
WRAY           CLOUDY    72  50  46 S13       29.87R
STERLING       PTCLDY    61  57  88 SW6       29.88R
HOLYOKE        CLOUDY    68  54  60 S7        29.85F
FORT MORGAN    PTCLDY    56  50  79 W6        29.91S
$$

COZ086-089-092>099-051300-
...SOUTHEAST COLORADO...

CITY           SKY/WX    TMP DP  RH WIND       PRES   REMARKS
PUEBLO         MOCLDY    65  51  60 W6        29.98R
LA JUNTA       CLOUDY    71  50  47 SW7       29.95S
LAMAR          CLOUDY    74  51  44 S14       29.90F
SPRINGFIELD      N/A     66  52  60 S8        30.02R
$$




USA.gov is the U.S. government's official web portal to all federal, state and local government web resources and services.